| time (UTC) | temp F | wind direction | speed MPH | gust MPH | rain 1hr in | rain 24hr in | rain mn in | humidity % | barometer mb |
| 20260906120122 | 58 | 46 | 0.0 | 3.0 | 0.00 | 0.08 | 0.01 | 94 | 1017.1 |
| 20260906115601 | 58 | 0 | 0.0 | 3.0 | 0.00 | 0.08 | 0.01 | 94 | 1016.9 |
| 20260906115100 | 58 | 40 | 0.0 | 3.0 | 0.00 | 0.08 | 0.01 | 94 | 1017.0 |
| 20260906114601 | 58 | 56 | 0.0 | 3.0 | 0.00 | 0.08 | 0.01 | 94 | 1016.9 |
| 20260906114101 | 58 | 0 | 0.0 | 3.0 | 0.00 | 0.08 | 0.01 | 94 | 1016.9 |
| 20260906113559 | 58 | 315 | 0.0 | 3.0 | 0.00 | 0.08 | 0.01 | 94 | 1016.8 |
| 20260906113104 | 58 | 0 | 0.0 | 5.0 | 0.00 | 0.08 | 0.01 | 94 | 1016.8 |
| 20260906112601 | 58 | 11 | 1.0 | 5.0 | 0.00 | 0.08 | 0.01 | 94 | 1016.8 |
| 20260906112103 | 58 | 23 | 1.0 | 4.0 | 0.00 | 0.08 | 0.01 | 94 | 1016.7 |
| 20260906111604 | 58 | 28 | 1.0 | 3.0 | 0.00 | 0.08 | 0.01 | 94 | 1016.6 |
| 20260906111104 | 58 | 84 | 0.0 | 3.0 | 0.00 | 0.08 | 0.01 | 94 | 1016.7 |
| 20260906110600 | 58 | 0 | 0.0 | 3.0 | 0.00 | 0.08 | 0.01 | 94 | 1016.6 |
| 20260906110113 | 58 | 0 | 0.0 | 2.0 | 0.00 | 0.08 | 0.01 | 94 | 1016.6 |
| 20260906105601 | 58 | 344 | 0.0 | 1.0 | 0.00 | 0.08 | 0.01 | 94 | 1016.5 |
| 20260906105059 | 58 | 0 | 0.0 | 1.0 | 0.00 | 0.08 | 0.01 | 94 | 1016.4 |
| 20260906104604 | 58 | 0 | 0.0 | 2.0 | 0.00 | 0.08 | 0.01 | 94 | 1016.3 |
| 20260906104103 | 58 | 0 | 0.0 | 2.0 | 0.00 | 0.08 | 0.01 | 94 | 1016.3 |
| 20260906103601 | 58 | 350 | 0.0 | 2.0 | 0.00 | 0.08 | 0.01 | 94 | 1016.3 |
| 20260906103104 | 58 | 0 | 0.0 | 0.0 | 0.00 | 0.08 | 0.01 | 94 | 1016.1 |
| 20260906102601 | 58 | 0 | 0.0 | 0.0 | 0.00 | 0.08 | 0.01 | 94 | 1016.0 |
| 20260906102104 | 58 | 0 | 0.0 | 0.0 | 0.00 | 0.08 | 0.01 | 94 | 1016.0 |
| 20260906101603 | 58 | 0 | 0.0 | 1.0 | 0.00 | 0.08 | 0.01 | 94 | 1016.0 |
| 20260906101100 | 58 | 0 | 0.0 | 1.0 | 0.00 | 0.08 | 0.01 | 94 | 1016.0 |
| 20260906100600 | 58 | 0 | 0.0 | 1.0 | 0.00 | 0.08 | 0.01 | 94 | 1016.1 |
| 20260906100110 | 58 | 0 | 0.0 | 0.0 | 0.00 | 0.08 | 0.01 | 94 | 1016.0 |
| 20260906095602 | 58 | 0 | 0.0 | 0.0 | 0.00 | 0.08 | 0.01 | 94 | 1016.0 |
| 20260906095104 | 58 | 0 | 0.0 | 0.0 | 0.01 | 0.08 | 0.01 | 94 | 1015.9 |
| 20260906094601 | 58 | 0 | 0.0 | 0.0 | 0.01 | 0.08 | 0.01 | 93 | 1015.8 |
| 20260906094101 | 58 | 0 | 0.0 | 0.0 | 0.01 | 0.08 | 0.01 | 93 | 1015.9 |
| 20260906093601 | 58 | 0 | 0.0 | 0.0 | 0.01 | 0.08 | 0.01 | 93 | 1015.8 |
| 20260906093119 | 58 | 0 | 0.0 | 0.0 | 0.01 | 0.08 | 0.01 | 94 | 1015.9 |
| 20260906092601 | 58 | 0 | 0.0 | 3.0 | 0.01 | 0.08 | 0.01 | 94 | 1015.8 |
| 20260906092059 | 58 | 0 | 0.0 | 3.0 | 0.01 | 0.08 | 0.01 | 94 | 1015.6 |
| 20260906091605 | 58 | 347 | 0.0 | 2.0 | 0.01 | 0.08 | 0.01 | 94 | 1015.7 |
| 20260906091102 | 58 | 6 | 0.0 | 1.0 | 0.01 | 0.08 | 0.01 | 93 | 1015.6 |
| 20260906090601 | 58 | 0 | 0.0 | 1.0 | 0.01 | 0.08 | 0.01 | 93 | 1015.5 |
| 20260906090128 | 58 | 292 | 0.0 | 3.0 | 0.01 | 0.08 | 0.01 | 93 | 1015.5 |
| 20260906085603 | 58 | 0 | 0.0 | 3.0 | 0.01 | 0.08 | 0.01 | 93 | 1015.5 |
| 20260906085100 | 58 | 0 | 1.0 | 3.0 | 0.00 | 0.07 | 0.00 | 93 | 1015.5 |
| 20260906084606 | 58 | 0 | 1.0 | 3.0 | 0.00 | 0.07 | 0.00 | 93 | 1015.5 |
| 20260906084100 | 58 | 4 | 0.0 | 3.0 | 0.00 | 0.07 | 0.00 | 93 | 1015.5 |
| 20260906083558 | 58 | 1 | 0.0 | 2.0 | 0.00 | 0.07 | 0.00 | 93 | 1015.5 |
| 20260906083102 | 58 | 356 | 0.0 | 2.0 | 0.00 | 0.07 | 0.00 | 93 | 1015.5 |
| 20260906082600 | 58 | 293 | 0.0 | 2.0 | 0.00 | 0.07 | 0.00 | 93 | 1015.4 |
| 20260906082102 | 58 | 0 | 0.0 | 2.0 | 0.00 | 0.07 | 0.00 | 93 | 1015.3 |
| 20260906081603 | 58 | 344 | 0.0 | 2.0 | 0.00 | 0.07 | 0.00 | 93 | 1015.4 |
| 20260906081104 | 58 | 352 | 0.0 | 2.0 | 0.00 | 0.07 | 0.00 | 93 | 1015.3 |
| 20260906080600 | 58 | 0 | 0.0 | 1.0 | 0.00 | 0.07 | 0.00 | 93 | 1015.3 |
| 20260906080104 | 58 | 0 | 0.0 | 1.0 | 0.00 | 0.07 | 0.00 | 93 | 1015.2 |
| 20260906075558 | 58 | 0 | 0.0 | 1.0 | 0.00 | 0.07 | 0.00 | 93 | 1015.2 |
| 20260906075100 | 58 | 0 | 0.0 | 1.0 | 0.00 | 0.07 | 0.00 | 93 | 1015.3 |
| 20260906074604 | 58 | 0 | 0.0 | 1.0 | 0.00 | 0.07 | 0.00 | 92 | 1015.3 |
| 20260906074100 | 58 | 0 | 0.0 | 1.0 | 0.00 | 0.07 | 0.00 | 92 | 1015.3 |
| 20260906073600 | 58 | 53 | 0.0 | 0.0 | 0.00 | 0.07 | 0.00 | 92 | 1015.1 |
| 20260906073100 | 58 | 0 | 0.0 | 2.0 | 0.00 | 0.07 | 0.00 | 92 | 1015.2 |
| 20260906072603 | 58 | 0 | 0.0 | 2.0 | 0.00 | 0.07 | 0.00 | 92 | 1015.1 |
| 20260906072059 | 58 | 59 | 0.0 | 2.0 | 0.00 | 0.07 | 0.00 | 92 | 1015.0 |
| 20260906071610 | 58 | 360 | 0.0 | 2.0 | 0.00 | 0.07 | 0.00 | 92 | 1015.0 |
| 20260906071059 | 58 | 0 | 0.0 | 2.0 | 0.00 | 0.07 | 0.00 | 92 | 1015.0 |
| 20260906070559 | 59 | 0 | 0.0 | 2.0 | 0.00 | 0.07 | 0.00 | 92 | 1014.9 |
| 20260906065600 | 59 | 51 | 0.0 | 3.0 | 0.00 | 0.07 | 0.00 | 92 | 1014.9 |
| 20260906065102 | 59 | 0 | 0.0 | 3.0 | 0.00 | 0.07 | 0.00 | 92 | 1014.9 |
| 20260906064604 | 59 | 354 | 0.0 | 3.0 | 0.00 | 0.07 | 0.00 | 92 | 1014.9 |
| 20260906064058 | 59 | 0 | 0.0 | 2.0 | 0.00 | 0.07 | 0.00 | 92 | 1015.0 |
| 20260906063559 | 59 | 328 | 0.0 | 1.0 | 0.00 | 0.07 | 0.00 | 92 | 1014.9 |
| 20260906063104 | 59 | 0 | 0.0 | 2.0 | 0.00 | 0.07 | 0.00 | 92 | 1014.9 |
| 20260906062559 | 59 | 0 | 0.0 | 2.0 | 0.00 | 0.07 | 0.00 | 91 | 1014.9 |
| 20260906062102 | 59 | 0 | 0.0 | 0.0 | 0.00 | 0.07 | 0.00 | 91 | 1014.9 |
| 20260906061606 | 59 | 0 | 0.0 | 1.0 | 0.00 | 0.07 | 0.00 | 91 | 1014.9 |
| 20260906061100 | 59 | 0 | 0.0 | 1.0 | 0.00 | 0.07 | 0.00 | 91 | 1015.0 |
| 20260906060600 | 59 | 0 | 0.0 | 2.0 | 0.00 | 0.07 | 0.00 | 91 | 1015.2 |
| 20260906060104 | 59 | 0 | 0.0 | 2.0 | 0.00 | 0.07 | 0.00 | 91 | 1015.1 |
| 20260906055600 | 59 | 316 | 0.0 | 2.0 | 0.00 | 0.07 | 0.00 | 91 | 1015.1 |
| 20260906055058 | 59 | 0 | 0.0 | 1.0 | 0.00 | 0.07 | 0.00 | 91 | 1015.1 |
| 20260906054603 | 59 | 0 | 0.0 | 1.0 | 0.00 | 0.07 | 0.00 | 91 | 1014.9 |
| 20260906054100 | 59 | 0 | 0.0 | 2.0 | 0.00 | 0.07 | 0.00 | 91 | 1014.9 |
| 20260906053600 | 60 | 0 | 0.0 | 2.0 | 0.00 | 0.07 | 0.00 | 91 | 1014.9 |
| 20260906053102 | 60 | 0 | 0.0 | 2.0 | 0.00 | 0.07 | 0.00 | 90 | 1014.9 |
| 20260906052600 | 60 | 319 | 0.0 | 2.0 | 0.00 | 0.07 | 0.00 | 90 | 1014.9 |
| 20260906052058 | 60 | 174 | 0.0 | 2.0 | 0.00 | 0.07 | 0.00 | 90 | 1015.0 |
| 20260906051606 | 60 | 0 | 0.0 | 3.0 | 0.00 | 0.07 | 0.00 | 90 | 1015.1 |
| 20260906051100 | 60 | 0 | 0.0 | 3.0 | 0.00 | 0.07 | 0.00 | 90 | 1015.1 |
| 20260906050602 | 60 | 293 | 0.0 | 2.0 | 0.00 | 0.07 | 0.00 | 90 | 1015.1 |
| 20260906050131 | 60 | 0 | 0.0 | 2.0 | 0.00 | 0.07 | 0.00 | 90 | 1015.1 |
| 20260906045601 | 60 | 0 | 0.0 | 2.0 | 0.00 | 0.07 | 0.00 | 90 | 1015.2 |
| 20260906045100 | 60 | 0 | 0.0 | 2.0 | 0.00 | 0.07 | 0.00 | 89 | 1015.1 |
| 20260906044603 | 60 | 300 | 0.0 | 3.0 | 0.00 | 0.07 | 0.00 | 89 | 1015.1 |
| 20260906044059 | 60 | 0 | 0.0 | 6.0 | 0.00 | 0.07 | 0.00 | 89 | 1015.1 |
| 20260906043600 | 60 | 21 | 0.0 | 6.0 | 0.00 | 0.07 | 0.00 | 89 | 1015.2 |
| 20260906043111 | 60 | 0 | 1.0 | 5.0 | 0.00 | 0.07 | 0.00 | 89 | 1015.2 |
| 20260906042559 | 61 | 0 | 0.0 | 3.0 | 0.00 | 0.07 | 0.00 | 89 | 1015.3 |
| 20260906042100 | 60 | 0 | 0.0 | 3.0 | 0.00 | 0.07 | 0.00 | 89 | 1015.2 |
| 20260906041603 | 61 | 306 | 1.0 | 3.0 | 0.00 | 0.07 | 0.00 | 89 | 1015.2 |
| 20260906041100 | 61 | 294 | 1.0 | 3.0 | 0.00 | 0.07 | 0.00 | 90 | 1015.2 |
| 20260906040600 | 61 | 0 | 0.0 | 3.0 | 0.00 | 0.07 | 0.00 | 90 | 1015.1 |
| 20260906040107 | 61 | 302 | 0.0 | 3.0 | 0.00 | 0.07 | 0.00 | 90 | 1015.0 |
| 20260906035558 | 61 | 44 | 1.0 | 6.0 | 0.00 | 0.07 | 0.07 | 90 | 1015.0 |
| 20260906035058 | 61 | 5 | 1.0 | 6.0 | 0.00 | 0.07 | 0.07 | 90 | 1015.1 |
| 20260906034601 | 61 | 320 | 0.0 | 3.0 | 0.00 | 0.07 | 0.07 | 91 | 1015.2 |
| 20260906034103 | 61 | 340 | 0.0 | 3.0 | 0.00 | 0.07 | 0.07 | 91 | 1015.1 |
| 20260906033603 | 61 | 355 | 1.0 | 3.0 | 0.00 | 0.07 | 0.07 | 92 | 1015.0 |
| 20260906033106 | 61 | 313 | 1.0 | 5.0 | 0.00 | 0.07 | 0.07 | 92 | 1015.0 |
| 20260906032559 | 61 | 293 | 0.0 | 5.0 | 0.00 | 0.07 | 0.07 | 92 | 1015.1 |
| 20260906032100 | 61 | 0 | 1.0 | 4.0 | 0.00 | 0.07 | 0.07 | 93 | 1015.0 |
| 20260906031604 | 61 | 73 | 0.0 | 6.0 | 0.00 | 0.07 | 0.07 | 93 | 1014.9 |
| 20260906031058 | 61 | 0 | 0.0 | 6.0 | 0.00 | 0.07 | 0.07 | 93 | 1014.7 |
| 20260906030559 | 61 | 350 | 1.0 | 4.0 | 0.00 | 0.07 | 0.07 | 93 | 1014.7 |
| 20260906030134 | 62 | 0 | 0.0 | 5.0 | 0.00 | 0.07 | 0.07 | 93 | 1014.7 |
| 20260906025559 | 62 | 325 | 2.0 | 5.0 | 0.00 | 0.07 | 0.07 | 93 | 1014.7 |
| 20260906025101 | 62 | 7 | 1.0 | 3.0 | 0.00 | 0.07 | 0.07 | 93 | 1014.6 |
| 20260906024604 | 62 | 0 | 0.0 | 1.0 | 0.00 | 0.07 | 0.07 | 93 | 1014.7 |
| 20260906024058 | 62 | 0 | 0.0 | 2.0 | 0.00 | 0.07 | 0.07 | 93 | 1014.5 |
| 20260906023601 | 62 | 0 | 0.0 | 2.0 | 0.00 | 0.07 | 0.07 | 93 | 1014.4 |
| 20260906023130 | 62 | 0 | 0.0 | 2.0 | 0.00 | 0.07 | 0.07 | 93 | 1014.4 |
| 20260906022602 | 62 | 317 | 0.0 | 2.0 | 0.00 | 0.07 | 0.07 | 93 | 1014.3 |
| 20260906022100 | 62 | 12 | 1.0 | 2.0 | 0.00 | 0.07 | 0.07 | 93 | 1014.3 |
| 20260906021613 | 62 | 55 | 0.0 | 2.0 | 0.00 | 0.07 | 0.07 | 93 | 1014.2 |
| 20260906021059 | 62 | 0 | 0.0 | 2.0 | 0.00 | 0.07 | 0.07 | 93 | 1014.1 |
| 20260906020558 | 62 | 315 | 1.0 | 2.0 | 0.00 | 0.07 | 0.07 | 93 | 1014.3 |
| 20260906020107 | 62 | 323 | 0.0 | 2.0 | 0.00 | 0.07 | 0.07 | 93 | 1014.3 |
| 20260906015558 | 62 | 307 | 1.0 | 2.0 | 0.00 | 0.07 | 0.07 | 93 | 1014.4 |
| 20260906015058 | 62 | 316 | 1.0 | 2.0 | 0.00 | 0.07 | 0.07 | 93 | 1014.4 |
| 20260906014628 | 62 | 306 | 0.0 | 1.0 | 0.00 | 0.07 | 0.07 | 93 | 1014.4 |
| 20260906014059 | 62 | 0 | 0.0 | 2.0 | 0.00 | 0.07 | 0.07 | 93 | 1014.3 |
| 20260906013600 | 62 | 0 | 0.0 | 2.0 | 0.00 | 0.07 | 0.07 | 93 | 1014.4 |
| 20260906013104 | 62 | 0 | 0.0 | 0.0 | 0.00 | 0.07 | 0.07 | 92 | 1014.4 |
| 20260906012601 | 62 | 0 | 0.0 | 0.0 | 0.00 | 0.07 | 0.07 | 92 | 1014.3 |
| 20260906012058 | 62 | 0 | 0.0 | 0.0 | 0.00 | 0.07 | 0.07 | 92 | 1014.3 |
| 20260906011607 | 62 | 0 | 0.0 | 1.0 | 0.00 | 0.07 | 0.07 | 92 | 1014.2 |
| 20260906011059 | 62 | 0 | 0.0 | 1.0 | 0.00 | 0.07 | 0.07 | 92 | 1014.3 |
| 20260906010558 | 62 | 229 | 0.0 | 1.0 | 0.00 | 0.07 | 0.07 | 92 | 1014.3 |
| 20260906010105 | 63 | 0 | 0.0 | 1.0 | 0.00 | 0.07 | 0.07 | 92 | 1014.2 |
| 20260906005559 | 63 | 0 | 0.0 | 1.0 | 0.00 | 0.07 | 0.07 | 92 | 1014.1 |
| 20260906005058 | 63 | 0 | 0.0 | 1.0 | 0.00 | 0.07 | 0.07 | 92 | 1014.0 |
| 20260906004603 | 63 | 0 | 0.0 | 0.0 | 0.00 | 0.07 | 0.07 | 92 | 1014.1 |
| 20260906004057 | 63 | 0 | 0.0 | 1.0 | 0.00 | 0.07 | 0.07 | 92 | 1014.1 |
| 20260906003557 | 63 | 0 | 0.0 | 2.0 | 0.00 | 0.07 | 0.07 | 91 | 1014.1 |
| 20260906003109 | 63 | 0 | 0.0 | 2.0 | 0.00 | 0.07 | 0.07 | 91 | 1014.0 |
| 20260906002558 | 63 | 56 | 0.0 | 2.0 | 0.00 | 0.07 | 0.07 | 91 | 1014.0 |
| 20260906002058 | 63 | 0 | 0.0 | 2.0 | 0.00 | 0.07 | 0.07 | 91 | 1014.0 |
| 20260906001603 | 63 | 0 | 0.0 | 1.0 | 0.00 | 0.07 | 0.07 | 91 | 1013.9 |
| 20260906001058 | 63 | 0 | 0.0 | 1.0 | 0.00 | 0.07 | 0.07 | 91 | 1014.0 |
| 20260906000600 | 63 | 0 | 0.0 | 1.0 | 0.00 | 0.07 | 0.07 | 91 | 1013.9 |
| 20260906000106 | 63 | 0 | 0.0 | 0.0 | 0.00 | 0.07 | 0.07 | 91 | 1014.0 |
| 20260905235558 | 63 | 0 | 0.0 | 0.0 | 0.00 | 0.07 | 0.07 | 91 | 1014.0 |
| 20260905235058 | 64 | 0 | 0.0 | 0.0 | 0.00 | 0.07 | 0.07 | 91 | 1013.9 |
| 20260905234615 | 64 | 0 | 0.0 | 1.0 | 0.00 | 0.07 | 0.07 | 91 | 1013.9 |
| 20260905234058 | 64 | 0 | 0.0 | 2.0 | 0.00 | 0.07 | 0.07 | 91 | 1013.8 |
| 20260905233559 | 64 | 295 | 0.0 | 2.0 | 0.00 | 0.07 | 0.07 | 90 | 1013.7 |
| 20260905233103 | 64 | 301 | 0.0 | 1.0 | 0.00 | 0.07 | 0.07 | 90 | 1013.6 |
| 20260905232558 | 64 | 0 | 0.0 | 1.0 | 0.00 | 0.07 | 0.07 | 90 | 1013.6 |
| 20260905232058 | 64 | 0 | 0.0 | 1.0 | 0.00 | 0.07 | 0.07 | 90 | 1013.6 |
| 20260905231603 | 64 | 0 | 0.0 | 2.0 | 0.00 | 0.07 | 0.07 | 90 | 1013.6 |
| 20260905231101 | 64 | 294 | 0.0 | 2.0 | 0.00 | 0.07 | 0.07 | 90 | 1013.5 |
| 20260905230558 | 64 | 0 | 1.0 | 2.0 | 0.00 | 0.07 | 0.07 | 90 | 1013.4 |
| 20260905230104 | 65 | 321 | 1.0 | 2.0 | 0.00 | 0.07 | 0.07 | 90 | 1013.5 |
| 20260905225601 | 65 | 313 | 0.0 | 2.0 | 0.00 | 0.07 | 0.07 | 90 | 1013.3 |
| 20260905225059 | 65 | 303 | 1.0 | 2.0 | 0.00 | 0.07 | 0.07 | 90 | 1013.4 |
| 20260905224610 | 65 | 310 | 1.0 | 2.0 | 0.00 | 0.07 | 0.07 | 90 | 1013.3 |
| 20260905224059 | 65 | 300 | 0.0 | 2.0 | 0.00 | 0.07 | 0.07 | 90 | 1013.3 |
| 20260905223558 | 66 | 304 | 0.0 | 3.0 | 0.00 | 0.07 | 0.07 | 90 | 1013.3 |
| 20260905223101 | 66 | 306 | 0.0 | 3.0 | 0.00 | 0.07 | 0.07 | 90 | 1013.2 |
| 20260905222559 | 66 | 318 | 0.0 | 3.0 | 0.00 | 0.07 | 0.07 | 91 | 1013.1 |
| 20260905222058 | 66 | 0 | 1.0 | 2.0 | 0.00 | 0.07 | 0.07 | 91 | 1013.2 |
| 20260905221603 | 66 | 316 | 0.0 | 2.0 | 0.00 | 0.07 | 0.07 | 91 | 1013.1 |
| 20260905221059 | 66 | 0 | 0.0 | 5.0 | 0.00 | 0.07 | 0.07 | 91 | 1013.1 |
| 20260905220558 | 66 | 0 | 0.0 | 5.0 | 0.00 | 0.07 | 0.07 | 91 | 1013.0 |
| 20260905220107 | 66 | 0 | 0.0 | 5.0 | 0.00 | 0.07 | 0.07 | 91 | 1013.0 |
| 20260905215559 | 66 | 0 | 1.0 | 5.0 | 0.00 | 0.07 | 0.07 | 91 | 1013.0 |
| 20260905215059 | 66 | 0 | 0.0 | 2.0 | 0.00 | 0.07 | 0.07 | 91 | 1013.0 |
| 20260905214611 | 66 | 0 | 0.0 | 3.0 | 0.00 | 0.07 | 0.07 | 91 | 1013.0 |
| 20260905214058 | 66 | 71 | 0.0 | 3.0 | 0.00 | 0.07 | 0.07 | 91 | 1013.0 |
| 20260905213558 | 66 | 0 | 0.0 | 1.0 | 0.00 | 0.07 | 0.07 | 90 | 1012.9 |
| 20260905213117 | 66 | 0 | 0.0 | 3.0 | 0.00 | 0.07 | 0.07 | 90 | 1012.9 |
| 20260905212558 | 66 | 0 | 0.0 | 3.0 | 0.00 | 0.07 | 0.07 | 90 | 1012.9 |
| 20260905212057 | 66 | 0 | 0.0 | 6.0 | 0.00 | 0.07 | 0.07 | 90 | 1012.8 |
| 20260905211603 | 67 | 0 | 0.0 | 6.0 | 0.00 | 0.07 | 0.07 | 90 | 1012.7 |
| 20260905211059 | 66 | 30 | 0.0 | 5.0 | 0.00 | 0.07 | 0.07 | 90 | 1012.8 |
| 20260905210603 | 67 | 0 | 1.0 | 5.0 | 0.00 | 0.07 | 0.07 | 89 | 1012.8 |
| 20260905210103 | 67 | 22 | 0.0 | 6.0 | 0.00 | 0.07 | 0.07 | 88 | 1012.8 |
| 20260905205558 | 67 | 68 | 1.0 | 7.0 | 0.00 | 0.07 | 0.07 | 88 | 1012.7 |
| 20260905205101 | 67 | 39 | 2.0 | 11.0 | 0.00 | 0.07 | 0.07 | 89 | 1012.7 |
| 20260905204607 | 67 | 15 | 2.0 | 11.0 | 0.00 | 0.07 | 0.07 | 89 | 1012.7 |
| 20260905204059 | 66 | 309 | 2.0 | 11.0 | 0.00 | 0.07 | 0.07 | 90 | 1012.7 |
| 20260905203602 | 66 | 66 | 1.0 | 3.0 | 0.00 | 0.07 | 0.07 | 91 | 1012.6 |
| 20260905203110 | 66 | 0 | 0.0 | 2.0 | 0.00 | 0.07 | 0.07 | 91 | 1012.6 |
| 20260905202557 | 66 | 0 | 0.0 | 2.0 | 0.00 | 0.07 | 0.07 | 91 | 1012.5 |
| 20260905202104 | 66 | 0 | 0.0 | 3.0 | 0.00 | 0.07 | 0.07 | 92 | 1012.6 |
| 20260905201607 | 65 | 0 | 0.0 | 3.0 | 0.00 | 0.07 | 0.07 | 92 | 1012.6 |
| 20260905201058 | 65 | 280 | 1.0 | 3.0 | 0.00 | 0.07 | 0.07 | 92 | 1012.5 |
| 20260905200558 | 65 | 308 | 0.0 | 3.0 | 0.00 | 0.07 | 0.07 | 91 | 1012.5 |
| 20260905195558 | 66 | 307 | 1.0 | 3.0 | 0.00 | 0.07 | 0.07 | 91 | 1012.5 |
| 20260905195059 | 66 | 0 | 0.0 | 3.0 | 0.00 | 0.07 | 0.07 | 91 | 1012.4 |
| 20260905194605 | 66 | 266 | 0.0 | 3.0 | 0.00 | 0.07 | 0.07 | 91 | 1012.4 |
| 20260905194058 | 66 | 304 | 0.0 | 9.0 | 0.01 | 0.07 | 0.07 | 91 | 1012.5 |
| 20260905193558 | 66 | 311 | 2.0 | 13.0 | 0.01 | 0.07 | 0.07 | 90 | 1012.5 |
| 20260905193104 | 67 | 11 | 2.0 | 13.0 | 0.01 | 0.07 | 0.07 | 92 | 1012.5 |
| 20260905192558 | 67 | 206 | 0.0 | 2.0 | 0.01 | 0.07 | 0.07 | 92 | 1012.5 |
| 20260905192102 | 67 | 283 | 0.0 | 2.0 | 0.01 | 0.07 | 0.07 | 92 | 1012.5 |
| 20260905191614 | 66 | 110 | 0.0 | 3.0 | 0.01 | 0.07 | 0.07 | 93 | 1012.5 |
| 20260905191102 | 66 | 0 | 1.0 | 3.0 | 0.01 | 0.07 | 0.07 | 93 | 1012.5 |
| 20260905190601 | 66 | 0 | 0.0 | 1.0 | 0.01 | 0.07 | 0.07 | 93 | 1012.6 |
| 20260905190103 | 65 | 0 | 0.0 | 2.0 | 0.01 | 0.07 | 0.07 | 93 | 1012.5 |
| 20260905185603 | 65 | 0 | 0.0 | 2.0 | 0.01 | 0.07 | 0.07 | 93 | 1012.6 |
| 20260905185058 | 65 | 310 | 1.0 | 4.0 | 0.01 | 0.07 | 0.07 | 93 | 1012.6 |
| 20260905184616 | 65 | 281 | 0.0 | 4.0 | 0.01 | 0.07 | 0.07 | 92 | 1012.4 |
| 20260905184058 | 65 | 0 | 0.0 | 4.0 | 0.00 | 0.06 | 0.06 | 92 | 1012.5 |
| 20260905183558 | 65 | 276 | 0.0 | 2.0 | 0.00 | 0.06 | 0.06 | 92 | 1012.5 |
| 20260905183104 | 65 | 297 | 1.0 | 2.0 | 0.00 | 0.06 | 0.06 | 92 | 1012.5 |
| 20260905182601 | 65 | 295 | 1.0 | 2.0 | 0.00 | 0.06 | 0.06 | 91 | 1012.4 |
| 20260905182101 | 66 | 300 | 0.0 | 2.0 | 0.00 | 0.06 | 0.06 | 91 | 1012.4 |
| 20260905181603 | 66 | 0 | 0.0 | 3.0 | 0.00 | 0.06 | 0.06 | 90 | 1012.4 |
| 20260905181058 | 67 | 333 | 0.0 | 7.0 | 0.00 | 0.06 | 0.06 | 90 | 1012.4 |
| 20260905180559 | 67 | 0 | 0.0 | 7.0 | 0.00 | 0.06 | 0.06 | 88 | 1012.3 |
| 20260905180108 | 68 | 34 | 0.0 | 7.0 | 0.00 | 0.06 | 0.06 | 88 | 1012.4 |
| 20260905175558 | 68 | 0 | 0.0 | 7.0 | 0.00 | 0.06 | 0.06 | 87 | 1012.3 |
| 20260905175058 | 68 | 58 | 2.0 | 7.0 | 0.00 | 0.06 | 0.06 | 87 | 1012.3 |
| 20260905174619 | 68 | 0 | 1.0 | 5.0 | 0.00 | 0.06 | 0.06 | 90 | 1012.3 |
| 20260905174058 | 67 | 60 | 2.0 | 5.0 | 0.00 | 0.06 | 0.06 | 90 | 1012.3 |
| 20260905173558 | 67 | 45 | 1.0 | 2.0 | 0.00 | 0.06 | 0.06 | 91 | 1012.2 |
| 20260905173112 | 67 | 0 | 0.0 | 5.0 | 0.00 | 0.06 | 0.06 | 92 | 1012.3 |
| 20260905172559 | 67 | 0 | 0.0 | 5.0 | 0.00 | 0.06 | 0.06 | 91 | 1012.2 |
| 20260905172058 | 66 | 1 | 0.0 | 5.0 | 0.04 | 0.06 | 0.06 | 91 | 1012.3 |
| 20260905171602 | 66 | 65 | 1.0 | 5.0 | 0.06 | 0.06 | 0.06 | 92 | 1012.3 |
| 20260905171101 | 66 | 56 | 0.0 | 2.0 | 0.06 | 0.06 | 0.06 | 93 | 1012.4 |
| 20260905170558 | 65 | 0 | 0.0 | 2.0 | 0.06 | 0.06 | 0.06 | 93 | 1012.4 |
| 20260905170106 | 65 | 0 | 0.0 | 2.0 | 0.06 | 0.06 | 0.06 | 93 | 1012.4 |
| 20260905165558 | 66 | 316 | 0.0 | 2.0 | 0.06 | 0.06 | 0.06 | 93 | 1012.4 |
| 20260905165101 | 66 | 0 | 1.0 | 2.0 | 0.06 | 0.06 | 0.06 | 93 | 1012.3 |
| 20260905164604 | 66 | 0 | 0.0 | 1.0 | 0.06 | 0.06 | 0.06 | 93 | 1012.4 |
| 20260905164101 | 65 | 0 | 0.0 | 2.0 | 0.06 | 0.06 | 0.06 | 93 | 1012.5 |
| 20260905163602 | 65 | 0 | 0.0 | 2.0 | 0.06 | 0.06 | 0.06 | 92 | 1012.5 |
| 20260905163108 | 65 | 280 | 1.0 | 11.0 | 0.06 | 0.06 | 0.06 | 89 | 1012.6 |
| 20260905162559 | 67 | 281 | 0.0 | 11.0 | 0.06 | 0.06 | 0.06 | 86 | 1012.5 |
| 20260905162058 | 68 | 75 | 4.0 | 11.0 | 0.02 | 0.02 | 0.02 | 84 | 1012.5 |
| 20260905161604 | 68 | 0 | 0.0 | 5.0 | 0.00 | 0.00 | 0.00 | 83 | 1012.4 |
| 20260905161100 | 68 | 96 | 2.0 | 7.0 | 0.00 | 0.00 | 0.00 | 82 | 1012.5 |
| 20260905160559 | 69 | 311 | 3.0 | 7.0 | 0.00 | 0.00 | 0.00 | 82 | 1012.4 |
| 20260905160105 | 68 | 34 | 0.0 | 6.0 | 0.00 | 0.00 | 0.00 | 85 | 1012.5 |
| 20260905155558 | 67 | 62 | 1.0 | 8.0 | 0.00 | 0.00 | 0.00 | 85 | 1012.6 |
| 20260905155059 | 67 | 5 | 2.0 | 8.0 | 0.00 | 0.00 | 0.00 | 85 | 1012.6 |
| 20260905154606 | 66 | 78 | 3.0 | 8.0 | 0.00 | 0.00 | 0.00 | 86 | 1012.7 |
| 20260905154058 | 66 | 44 | 3.0 | 6.0 | 0.00 | 0.00 | 0.00 | 87 | 1012.7 |
| 20260905153602 | 66 | 50 | 1.0 | 11.0 | 0.00 | 0.00 | 0.00 | 87 | 1012.6 |
| 20260905153111 | 66 | 27 | 4.0 | 11.0 | 0.00 | 0.00 | 0.00 | 85 | 1012.7 |
| 20260905152559 | 67 | 51 | 3.0 | 11.0 | 0.00 | 0.00 | 0.00 | 85 | 1012.8 |
| 20260905152058 | 67 | 53 | 3.0 | 8.0 | 0.00 | 0.00 | 0.00 | 85 | 1012.7 |
| 20260905151604 | 67 | 50 | 4.0 | 9.0 | 0.00 | 0.00 | 0.00 | 85 | 1012.8 |
| 20260905151058 | 67 | 47 | 2.0 | 9.0 | 0.00 | 0.00 | 0.00 | 86 | 1012.8 |
| 20260905150558 | 66 | 57 | 4.0 | 9.0 | 0.00 | 0.00 | 0.00 | 86 | 1012.7 |
| 20260905150104 | 66 | 58 | 2.0 | 9.0 | 0.00 | 0.00 | 0.00 | 86 | 1012.7 |
| 20260905145557 | 67 | 53 | 1.0 | 7.0 | 0.00 | 0.00 | 0.00 | 86 | 1012.6 |
| 20260905145058 | 67 | 60 | 3.0 | 7.0 | 0.00 | 0.00 | 0.00 | 86 | 1012.5 |
| 20260905144606 | 67 | 47 | 1.0 | 8.0 | 0.00 | 0.00 | 0.00 | 87 | 1012.6 |
| 20260905144104 | 68 | 60 | 2.0 | 8.0 | 0.00 | 0.00 | 0.00 | 87 | 1012.6 |
| 20260905143602 | 67 | 62 | 1.0 | 7.0 | 0.00 | 0.00 | 0.00 | 88 | 1012.6 |
| 20260905143105 | 67 | 50 | 2.0 | 7.0 | 0.00 | 0.00 | 0.00 | 89 | 1012.6 |
| 20260905142601 | 66 | 107 | 1.0 | 7.0 | 0.00 | 0.00 | 0.00 | 90 | 1012.5 |
| 20260905142102 | 66 | 1 | 1.0 | 5.0 | 0.00 | 0.00 | 0.00 | 93 | 1012.5 |
| 20260905141615 | 64 | 0 | 2.0 | 3.0 | 0.00 | 0.00 | 0.00 | 95 | 1012.7 |
| 20260905141058 | 63 | 58 | 0.0 | 1.0 | 0.00 | 0.00 | 0.00 | 96 | 1012.8 |
| 20260905140558 | 63 | 0 | 0.0 | 3.0 | 0.00 | 0.00 | 0.00 | 96 | 1012.8 |
| 20260905140107 | 63 | 0 | 0.0 | 3.0 | 0.00 | 0.00 | 0.00 | 96 | 1012.8 |
| 20260905135602 | 63 | 56 | 0.0 | 3.0 | 0.00 | 0.00 | 0.00 | 96 | 1012.8 |
| 20260905135102 | 63 | 73 | 0.0 | 3.0 | 0.00 | 0.00 | 0.00 | 96 | 1012.8 |
| 20260905134612 | 62 | 58 | 1.0 | 3.0 | 0.00 | 0.00 | 0.00 | 96 | 1012.9 |
| 20260905134100 | 62 | 44 | 1.0 | 3.0 | 0.00 | 0.00 | 0.00 | 96 | 1012.8 |
| 20260905133558 | 62 | 0 | 0.0 | 3.0 | 0.00 | 0.00 | 0.00 | 96 | 1012.8 |
| 20260905133106 | 62 | 0 | 0.0 | 3.0 | 0.00 | 0.00 | 0.00 | 96 | 1012.8 |
| 20260905132558 | 62 | 5 | 1.0 | 3.0 | 0.00 | 0.00 | 0.00 | 96 | 1012.8 |
| 20260905132101 | 62 | 0 | 0.0 | 1.0 | 0.00 | 0.00 | 0.00 | 96 | 1012.7 |
| 20260905131608 | 62 | 0 | 0.0 | 1.0 | 0.00 | 0.00 | 0.00 | 96 | 1012.5 |
| 20260905131103 | 61 | 0 | 0.0 | 2.0 | 0.00 | 0.00 | 0.00 | 96 | 1012.6 |
| 20260905130601 | 61 | 0 | 0.0 | 2.0 | 0.00 | 0.00 | 0.00 | 96 | 1012.5 |
| 20260905130115 | 61 | 0 | 0.0 | 2.0 | 0.00 | 0.00 | 0.00 | 96 | 1012.6 |
| 20260905125558 | 61 | 0 | 0.0 | 1.0 | 0.00 | 0.00 | 0.00 | 96 | 1012.5 |
| 20260905125058 | 61 | 0 | 0.0 | 2.0 | 0.00 | 0.00 | 0.00 | 96 | 1012.6 |
| 20260905124603 | 61 | 0 | 0.0 | 3.0 | 0.00 | 0.00 | 0.00 | 96 | 1012.6 |
| 20260905124058 | 61 | 0 | 1.0 | 3.0 | 0.00 | 0.00 | 0.00 | 96 | 1012.4 |
| 20260905123559 | 61 | 0 | 0.0 | 1.0 | 0.00 | 0.00 | 0.00 | 96 | 1012.3 |
| 20260905123103 | 60 | 0 | 0.0 | 0.0 | 0.00 | 0.00 | 0.00 | 96 | 1012.4 |
| 20260905122602 | 60 | 0 | 0.0 | 0.0 | 0.00 | 0.00 | 0.00 | 96 | 1012.4 |
| 20260905122059 | 60 | 0 | 0.0 | 0.0 | 0.00 | 0.00 | 0.00 | 96 | 1012.4 |
| 20260905121603 | 60 | 0 | 0.0 | 0.0 | 0.00 | 0.00 | 0.00 | 96 | 1012.3 |
| 20260905121058 | 59 | 0 | 0.0 | 1.0 | 0.00 | 0.00 | 0.00 | 96 | 1012.4 |
| 20260905120559 | 59 | 0 | 0.0 | 1.0 | 0.00 | 0.00 | 0.00 | 96 | 1012.2 |